Retour au catalogue

FENGYUN 1C DEB

ActifSSO
NORAD 31449·DEBRIS·🇨🇳 China

Lancé May 10, 1999 depuis Taiyuan Satellite Launch Center

Loading…

Prochains Passages (prochaines 24 heures)

TLE

FraisSource: Space-Track

Époque: Sep 13, 2026, 21:53 UTC

1 31449U 99025BUM 26256.91229634  .00000351  00000-0  12663-3 0  9993
2 31449  98.5185 316.8890 0144924 172.9638 187.3627 14.34017562 15568

Suivez FENGYUN 1C DEB en temps réel avec AllMySat

Download on the App Store